Regional Weather Roundup
Issued by NWS Portland, ME

Current Version | Previous Version | Text Only | Print | Product List | Glossary Off
Versions: 1 2 3 4 5 6 7 8 9 10 11 12 13 14 15 16 17 18 19 20 21 22 23 24 25 26 27 28 29 30 31 32 33 34 35 36 37 38 39 40 41 42 43 44 45 46 47 48 49 50
000 ASUS41 KGYX 241210 RWRGYX WEATHER ROUNDUP FOR MAINE AND NEW HAMPSHIRE NATIONAL WEATHER SERVICE GRAY ME 800 AM EDT SUN JUN 24 2018 MEZ002-005-006-010-012-015-018-020-021-024-026-027-029-241300- MAINE CITY SKY/WX TMP DP RH WIND PRES REMARKS PORTLAND FAIR 59 55 87 CALM 29.80S 6HR MIN TEMP: 54; 6HR MAX TEMP: 59; SANFORD PTSUNNY 60 54 80 W6 29.80S BAR HARBOR CLOUDY 56 54 93 W3 29.79R WISCASSET CLOUDY 57 55 93 SW5 29.82R 6HR MIN TEMP: 54; 6HR MAX TEMP: 57; ROCKLAND CLOUDY 57 55 93 SW5 29.79F FRYEBURG CLOUDY 55 55 100 CALM 29.79F 6HR MIN TEMP: 52; 6HR MAX TEMP: 56; LEWISTONAUBURN CLOUDY 55 54 94 CALM 29.80S AUGUSTA CLOUDY 56 54 93 CALM 29.80R 6HR MIN TEMP: 53; 6HR MAX TEMP: 56; 6HR PCP: TRACE; WATERVILLE CLOUDY 56 55 97 CALM 29.76S BANGOR CLOUDY 56 54 93 SW5 29.78R 6HR MIN TEMP: 53; 6HR MAX TEMP: 57; 6HR PCP: TRACE; GREENVILLE N/A 57 54 89 NW8 29.76R 6HR MIN TEMP: 51; 6HR MAX TEMP: 57; 6HR PCP: 0.03; MILLINOCKET CLOUDY 57 54 89 CALM 29.76S 6HR MIN TEMP: 52; 6HR MAX TEMP: 57; 6HR PCP: 0.01; HOULTON CLOUDY 57 54 89 SW5 29.72S 6HR MIN TEMP: 51; 6HR MAX TEMP: 58; 6HR PCP: 0.02; PRESQUE ISLE CLOUDY 58 52 80 S3 29.73R 6HR MIN TEMP: 55; 6HR MAX TEMP: 58; FRENCHVILLE CLOUDY 63 52 67 NW9 29.72R 6HR MIN TEMP: 58; 6HR MAX TEMP: 63; CARIBOU CLOUDY 58 52 80 SW3 29.71R 6HR MIN TEMP: 56; 6HR MAX TEMP: 59; 6HR PCP: TRACE; $$ NHZ002-005-008-009-011-012-014-241300- NEW HAMPSHIRE CITY SKY/WX TMP DP RH WIND PRES REMARKS PORTSMOUTH CLOUDY 59 55 84 SW7 29.79S ROCHESTER PTSUNNY 61 55 81 S6 29.79S 6HR MIN TEMP: 54; 6HR MAX TEMP: 61; NASHUA CLOUDY 60 58 92 CALM 29.82R MANCHESTER CLOUDY 60 55 83 S3 29.79S 6HR MIN TEMP: 57; 6HR MAX TEMP: 60; CONCORD CLOUDY 57 54 89 S6 29.81R 6HR MIN TEMP: 53; 6HR MAX TEMP: 57; LACONIA CLOUDY 59 55 87 SW8 29.80S PLYMOUTH N/A 58 55 88 CALM 29.78F BERLIN CLOUDY 57 55 93 CALM 29.80S 6HR MIN TEMP: 54; 6HR MAX TEMP: 57; WHITEFIELD CLOUDY 57 54 89 CALM 29.80S 6HR MIN TEMP: 55; 6HR MAX TEMP: 57; JAFFREY CLOUDY 58 58 100 VRB3 29.82R FOG 6HR MIN TEMP: 54; 6HR MAX TEMP: 58; KEENE CLOUDY 59 57 93 SW3 29.82R LEBANON CLOUDY 59 53 80 CALM 29.80R 6HR MIN TEMP: 56; 6HR MAX TEMP: 59; MT WASHINGTON FOG 48 48 100 NW28 N/A VSB 1/16 6HR MIN TEMP: 45; 6HR MAX TEMP: 49; 6HR PCP: 0.07; $$ VTZ005-007-008-241300- VERMONT CITY SKY/WX TMP DP RH WIND PRES REMARKS ST JOHNSBURY N/A 56 54 93 MISG 29.79R MONTPELIER CLOUDY 56 56 100 NW3 29.84R BURLINGTON LGT RAIN 61 58 90 SW6 29.80R $$ MAZ007-012-024-CTZ003-RIZ002-NYZ038-NYZ072-241300- SOUTHERN NEW ENGLAND AND NY CITY SKY/WX TMP DP RH WIND PRES REMARKS BOSTON CLOUDY 62 57 83 S8 29.82S WORCESTER CLOUDY 59 58 96 SW14 29.82S FOG NANTUCKET PTSUNNY 63 62 97 S5 29.84S PROVIDENCE CLOUDY 64 59 83 S8 29.84R HARTFORD CLOUDY 62 59 90 S6 29.83R ALBANY CLOUDY 64 60 87 S8 29.81R FOG NEW YORK CITY CLOUDY 68 65 90 S5 29.83S FOG $$ ANZ081-ANZ082-ANZ150-NHZ014-MEZ023>029-241300- COASTAL MARINE OBSERVATIONS STATION/POSITION TIME TEMP WIND PRES WAVE AIR SEA DIR/SP/G HT/PER (UTC) (F) (DEG/KT/KT) (MB) (FT/S) MOUNT DESERT ROC 1200 52 250/ 8/ 9 1009.1R MATINICUS ROCK 1200 53 250/ 7/ 8 1008.6R ISLE OF SHOALS 1200 57 210/ 9/ 10 1008.9S JEFFREYS LEDGE 1136 61 N/A 2/ 8 $$ .............KEY.............. WCI - WIND CHILL TC - TEMPERATURE IN CELSIUS VSB - VISIBILITY IN MILES HX - HEAT INDEX FAIR- INDICATES FEW OR NO CLOUDS BELOW 12,000 FT, WITH NO SIGNIFICANT WEATHER AND/OR OBSTRUCTIONS TO VISIBILITY.

USA.gov is the U.S. government's official web portal to all federal, state and local government web resources and services.